Powrót do katalogu

COSMOS 249 DEB

AktywnyLEO
NORAD 19362·DEBRIS·🇷🇺 Russia

Wystrzelony Oct 20, 1968 z Baikonur Cosmodrome

Loading…

Następne Przeloty (najbliższe 24 godziny)

TLE

ŚwieżeSource: Space-Track

Epoka: Sep 14, 2026, 20:09 UTC

1 19362U 68091DJ  26257.83970079  .00008472  00000-0  10511-2 0  9991
2 19362  62.7631  58.6208 0466243  69.5797 295.4688 14.28076175932765

Śledź COSMOS 249 DEB w czasie rzeczywistym z AllMySat

Download on the App Store